User: anonymous   Login
Location: Anjeux
(47.8815°N, 6.2076°E)
Time: 21:52:29
(UTC+00:00)
Language:

IDEFIX/ARIANE 42P - Orbit

View from above orbital plane
View from above orbital plane
View from above satellite
View from above satellite

Ground track
Ground track

The orbit data is extracted from the following two-line orbital elements,

1 27422U 02021B   21134.57641842  .00000010  00000-0  20536-4 0  9991
2 27422  98.4001  88.7802 0011834 338.9798  21.0897 14.29318288992461
Epoch (UTC): 14 May 2021 13:50:02
Eccentricity: 0.0011834
inclination: 98.4001°
perigee height: 785 km
apogee height: 802 km
right ascension of ascending node: 88.7802°
argument of perigee: 338.9798°
revolutions per day: 14.29318288
mean anomaly at epoch: 21.0897°
orbit number at epoch: 99246

The dashed part of the orbit path shows where the satellite is in the earth's shadow,  

DLR